EW4427 Weather Reports


time (UTC)temp
C
wind
direction
speed
KPH
gust
KPH
rain 1hr
cm
rain 24hr
cm
rain mn
cm
humidity
%
barometer
mb
20260503232045 18 223 1.6 9.7 0.00 0.00 0.00 48 1004.1
20260503231551 18 226 3.2 12.9 0.00 0.00 0.00 49 1004.2
20260503231043 18 0 3.2 12.9 0.00 0.00 0.00 49 1004.2
20260503230544 18 211 3.2 16.1 0.00 0.00 0.00 47 1004.2
20260503225545 18 185 4.8 11.3 0.00 0.00 0.00 47 1004.3
20260503225047 18 218 1.6 11.3 0.00 0.00 0.00 48 1004.3
20260503224548 18 226 4.8 14.5 0.00 0.00 0.00 47 1004.2
20260503224048 18 0 3.2 14.5 0.00 0.00 0.00 48 1004.2
20260503223547 18 209 3.2 14.5 0.00 0.00 0.00 48 1004.3
20260503223057 18 250 4.8 14.5 0.00 0.00 0.00 48 1004.5
20260503222546 18 210 4.8 12.9 0.00 0.00 0.00 48 1004.5
20260503222045 18 0 1.6 16.1 0.00 0.00 0.00 48 1004.6
20260503221557 18 207 1.6 17.7 0.00 0.00 0.00 49 1004.6
20260503221047 18 207 8.0 25.7 0.00 0.00 0.00 50 1004.5
20260503220547 18 238 6.4 25.7 0.00 0.00 0.00 48 1004.5
20260503220057 18 240 8.0 19.3 0.00 0.00 0.00 49 1004.5
20260503215545 18 250 3.2 19.3 0.00 0.00 0.00 49 1004.5
20260503215047 18 188 9.7 16.1 0.00 0.00 0.00 49 1004.5
20260503214549 18 215 4.8 19.3 0.00 0.00 0.00 50 1004.5
20260503214044 18 235 9.7 19.3 0.00 0.00 0.00 48 1004.7
20260503213547 18 228 6.4 19.3 0.00 0.00 0.00 48 1004.8
20260503213056 18 260 3.2 19.3 0.00 0.00 0.00 48 1005.0
20260503212544 18 225 8.0 20.9 0.00 0.00 0.00 48 1004.7
20260503212044 18 207 8.0 20.9 0.00 0.00 0.00 49 1004.9
20260503211554 18 220 1.6 20.9 0.00 0.00 0.00 49 1005.0
20260503211044 18 205 4.8 30.6 0.00 0.00 0.00 51 1005.1
20260503210546 17 196 8.0 32.2 0.00 0.00 0.00 49 1005.0
20260503210052 18 234 9.7 32.2 0.00 0.00 0.00 49 1005.2
20260503205544 18 209 11.3 25.7 0.00 0.00 0.00 48 1005.2
20260503205046 18 229 11.3 25.7 0.00 0.00 0.00 46 1005.3
20260503204554 19 249 8.0 20.9 0.00 0.00 0.00 46 1005.3
20260503204045 18 234 6.4 32.2 0.00 0.00 0.00 49 1005.3
20260503203547 18 202 8.0 33.8 0.00 0.00 0.00 51 1005.4
20260503203059 18 214 11.3 33.8 0.00 0.00 0.00 52 1005.6
20260503202545 18 208 9.7 22.5 0.00 0.00 0.00 51 1005.7
20260503202047 17 223 11.3 25.7 0.00 0.00 0.00 53 1006.0
20260503201555 17 192 12.9 32.2 0.00 0.00 0.00 54 1006.1
20260503201046 17 259 11.3 35.4 0.00 0.00 0.00 53 1006.3
20260503200546 17 192 16.1 35.4 0.00 0.00 0.00 55 1006.3
20260503200100 17 198 12.9 29.0 0.00 0.00 0.00 54 1006.5
20260503195544 17 198 12.9 27.4 0.00 0.00 0.00 53 1006.6
20260503195044 17 221 11.3 20.9 0.00 0.00 0.00 54 1006.5
20260503194600 17 196 8.0 24.1 0.00 0.00 0.00 53 1006.6
20260503194047 17 259 11.3 33.8 0.00 0.00 0.00 54 1006.7
20260503193548 17 190 4.8 33.8 0.00 0.00 0.00 53 1006.6
20260503193107 17 196 12.9 24.1 0.00 0.00 0.00 49 1006.8
20260503192546 17 237 8.0 38.6 0.00 0.00 0.00 49 1006.7
20260503192049 17 261 14.5 38.6 0.00 0.00 0.00 49 1006.9
20260503191604 17 198 11.3 35.4 0.00 0.00 0.00 51 1006.7
20260503191046 17 215 16.1 35.4 0.00 0.00 0.00 51 1006.7
20260503190545 17 205 12.9 33.8 0.00 0.00 0.00 49 1006.9
20260503190053 17 225 9.7 24.1 0.00 0.00 0.00 52 1006.8
20260503185545 17 196 11.3 32.2 0.00 0.00 0.00 51 1006.7
20260503185042 16 199 17.7 32.2 0.00 0.00 0.00 53 1006.9
20260503184554 17 224 14.5 29.0 0.00 0.00 0.00 52 1006.8
20260503184047 17 217 11.3 25.7 0.00 0.00 0.00 48 1006.8
20260503183547 17 255 8.0 24.1 0.00 0.00 0.00 48 1006.9
20260503183109 17 211 14.5 25.7 0.00 0.00 0.00 52 1007.1
20260503182547 16 249 16.1 29.0 0.00 0.00 0.00 48 1007.1
20260503182047 16 190 12.9 30.6 0.00 0.00 0.00 51 1007.1
20260503181618 16 223 17.7 38.6 0.00 0.00 0.00 51 1007.3
20260503181047 16 223 12.9 38.6 0.00 0.00 0.00 55 1007.4
20260503180547 15 217 22.5 37.0 0.00 0.00 0.00 58 1007.4
20260503180054 15 203 16.1 35.4 0.00 0.00 0.00 59 1007.5
20260503175547 15 180 17.7 32.2 0.00 0.00 0.00 61 1007.6
20260503175048 14 198 16.1 32.2 0.00 0.00 0.00 61 1007.6
20260503174554 14 214 17.7 33.8 0.00 0.00 0.00 62 1007.7
20260503174046 15 208 14.5 38.6 0.00 0.00 0.00 62 1007.8
20260503173546 14 189 9.7 41.8 0.00 0.00 0.00 62 1008.0
20260503173058 13 216 19.3 41.8 0.00 0.00 0.00 64 1008.1
20260503172548 13 182 17.7 37.0 0.00 0.00 0.00 62 1008.3
20260503172048 13 190 12.9 37.0 0.00 0.00 0.00 64 1008.3
20260503171556 13 186 20.9 35.4 0.00 0.00 0.00 65 1008.4
20260503171047 13 197 14.5 27.4 0.00 0.00 0.00 65 1008.5
20260503170547 13 214 12.9 27.4 0.00 0.00 0.00 64 1008.6
20260503150546 13 218 9.7 25.7 0.00 0.00 0.00 62 1010.4
20260503131045 11 257 4.8 11.3 0.00 0.00 0.00 60 1011.3
20260503130545 10 202 3.2 16.1 0.00 0.00 0.00 61 1011.3
20260503110545 8 187 4.8 12.9 0.00 0.00 0.00 59 1011.1
20260503100104 8 208 4.8 11.3 0.00 0.00 0.00 59 1011.4
20260503081556 9 184 1.6 12.9 0.00 0.00 0.00 54 1012.3
20260503081047 9 0 3.2 12.9 0.00 0.00 0.00 53 1012.3
20260503080549 9 180 3.2 16.1 0.00 0.00 0.00 55 1012.3
20260503072546 8 234 3.2 9.7 0.00 0.00 0.00 57 1012.4
20260503072046 8 206 3.2 8.0 0.00 0.00 0.00 56 1012.5
20260503071605 8 206 1.6 8.0 0.00 0.00 0.00 58 1012.5
20260503071045 8 0 3.2 8.0 0.00 0.00 0.00 57 1012.5
20260503070546 8 219 1.6 8.0 0.00 0.00 0.00 58 1012.6
20260503070113 8 213 1.6 8.0 0.00 0.00 0.00 57 1012.7
20260503060119 8 202 3.2 8.0 0.00 0.00 0.00 59 1013.1
20260503055049 8 202 1.6 8.0 0.00 0.00 0.00 59 1013.2
20260503054559 8 211 1.6 8.0 0.00 0.00 0.00 58 1013.3
20260503054045 8 207 1.6 8.0 0.00 0.00 0.00 59 1013.2
20260503053548 8 223 1.6 6.4 0.00 0.00 0.00 58 1013.3
20260503053053 8 214 1.6 6.4 0.00 0.00 0.00 59 1013.3
20260503052545 8 214 3.2 6.4 0.00 0.00 0.00 59 1013.4
20260503052046 8 231 1.6 6.4 0.00 0.00 0.00 59 1013.4
20260503051555 8 205 1.6 6.4 0.00 0.00 0.00 60 1013.5
20260503051046 8 211 1.6 6.4 0.00 0.00 0.00 60 1013.6
20260503050546 8 0 1.6 6.4 0.00 0.00 0.00 59 1013.5
20260503050055 8 212 3.2 6.4 0.00 0.00 0.00 59 1013.5
20260503045546 8 212 1.6 6.4 0.00 0.00 0.00 60 1013.6
20260503045045 8 230 3.2 6.4 0.00 0.00 0.00 60 1013.6
20260503044550 8 205 3.2 6.4 0.00 0.00 0.00 59 1013.7
20260503044049 8 213 3.2 6.4 0.00 0.00 0.00 58 1013.6
20260503043545 8 211 1.6 8.0 0.00 0.00 0.00 59 1013.6
20260503043053 8 0 1.6 8.0 0.00 0.00 0.00 59 1013.5
20260503042545 8 236 1.6 8.0 0.00 0.00 0.00 59 1013.8
20260503042045 8 223 3.2 8.0 0.00 0.00 0.00 58 1013.6
20260503041554 8 207 3.2 8.0 0.00 0.00 0.00 61 1013.7
20260503041046 8 211 3.2 8.0 0.00 0.00 0.00 58 1013.7
20260503040546 8 236 3.2 8.0 0.00 0.00 0.00 59 1013.8
20260503040051 8 0 3.2 8.0 0.00 0.00 0.00 59 1013.8
20260503035545 8 225 1.6 8.0 0.00 0.00 0.00 59 1013.9
20260503035048 8 213 3.2 6.4 0.00 0.00 0.00 58 1013.9
20260503034606 8 209 3.2 6.4 0.00 0.00 0.00 58 1013.9
20260503034049 8 209 1.6 6.4 0.00 0.00 0.00 58 1013.9
20260503033547 8 213 1.6 6.4 0.00 0.00 0.00 58 1014.0
20260503033057 8 188 1.6 8.0 0.00 0.00 0.00 58 1014.0
20260503032547 8 209 1.6 8.0 0.00 0.00 0.00 60 1013.9
20260503032046 8 0 0.0 6.4 0.00 0.00 0.00 58 1014.0
20260503031556 8 0 1.6 6.4 0.00 0.00 0.00 58 1014.1
20260503031046 8 211 1.6 6.4 0.00 0.00 0.00 60 1014.1
20260503030544 8 216 1.6 6.4 0.00 0.00 0.00 60 1014.1
20260503030056 8 209 1.6 6.4 0.00 0.00 0.00 59 1014.1
20260503025547 8 219 1.6 6.4 0.00 0.00 0.00 61 1014.2
20260503025044 7 224 1.6 6.4 0.00 0.00 0.00 63 1014.2
20260503024550 7 215 1.6 4.8 0.00 0.00 0.00 69 1014.3
20260503024042 6 0 0.0 3.2 0.00 0.00 0.00 77 1014.3
20260503023542 6 0 0.0 0.0 0.00 0.00 0.00 75 1014.2
20260503023057 6 0 0.0 0.0 0.00 0.00 0.00 74 1014.3
20260503022544 6 0 0.0 0.0 0.00 0.00 0.00 73 1014.3
20260503022046 6 0 0.0 0.0 0.00 0.00 0.00 72 1014.4
20260503021549 6 0 0.0 0.0 0.00 0.00 0.00 71 1014.3
20260503021042 6 0 0.0 0.0 0.00 0.00 0.00 71 1014.3
20260503020542 6 0 0.0 0.0 0.00 0.00 0.00 70 1014.3
20260503020045 6 0 0.0 0.0 0.00 0.00 0.00 70 1014.2
20260503015542 6 0 0.0 0.0 0.00 0.00 0.00 69 1014.2
20260503015045 7 0 0.0 0.0 0.00 0.00 0.00 68 1014.2
20260503014549 7 0 0.0 0.0 0.00 0.00 0.00 67 1014.1
20260503014042 7 0 0.0 0.0 0.00 0.00 0.00 67 1014.1
20260503013542 7 0 0.0 0.0 0.00 0.00 0.00 65 1014.2
20260503013054 8 0 0.0 0.0 0.00 0.00 0.00 64 1014.1
20260503012545 8 0 0.0 0.0 0.00 0.00 0.00 62 1014.1
20260503012042 8 0 0.0 0.0 0.00 0.00 0.00 62 1014.1
20260503011604 10 0 0.0 1.6 0.00 0.00 0.00 59 1014.1
20260503011045 10 0 0.0 6.4 0.00 0.00 0.00 57 1014.1
20260503010546 11 0 1.6 6.4 0.00 0.00 0.00 50 1014.1
20260503010117 11 220 0.0 4.8 0.00 0.00 0.00 49 1014.1
20260503005542 11 0 0.0 4.8 0.00 0.00 0.00 49 1014.0
20260503005043 11 213 1.6 4.8 0.00 0.00 0.00 48 1014.1
20260503004616 11 0 1.6 4.8 0.00 0.00 0.00 47 1014.1
20260503004041 11 207 0.0 6.4 0.00 0.00 0.00 47 1014.0
20260503003542 11 0 0.0 6.4 0.00 0.00 0.00 47 1014.1
20260503003049 11 0 0.0 3.2 0.00 0.00 0.00 47 1014.1
20260503002544 11 0 0.0 3.2 0.00 0.00 0.00 45 1014.1
20260503002042 11 0 0.0 4.8 0.00 0.00 0.00 45 1014.3
20260503001551 11 0 0.0 8.0 0.00 0.00 0.00 44 1014.2
20260503001042 12 0 1.6 8.0 0.00 0.00 0.00 45 1014.2
20260503000541 12 0 3.2 6.4 0.00 0.00 0.00 44 1014.3
20260503000050 12 0 0.0 6.4 0.00 0.00 0.00 43 1014.4
20260502235541 12 221 0.0 4.8 0.00 0.00 0.00 44 1014.3
20260502235045 12 0 0.0 3.2 0.00 0.00 0.00 43 1014.4
20260502234554 12 0 0.0 3.2 0.00 0.00 0.00 43 1014.4
20260502234042 12 0 0.0 4.8 0.00 0.00 0.00 42 1014.5
20260502233545 12 0 0.0 6.4 0.00 0.00 0.00 42 1014.5
20260502233052 12 0 1.6 8.0 0.00 0.00 0.00 43 1014.6
20260502232545 12 0 1.6 8.0 0.00 0.00 0.00 44 1014.6